sat.trackr.live / text

‹ back to catalog

STARLINK-35598

NORAD 66509 · 2025-263AA

PAYLOAD ACTIVE UNKNOWN

§ Identity

Operator
Country
US
Launch date
2025-11-15
Launch site
AFETR
Launch vehicle
Mass (kg)
RCS (m²)

Purposes: comms

External: N2YO · Heavens-Above · Gunter

§ Orbital elements

Epoch: 2026-05-24T19:04:47.092800Z

Period
94.27 min
Inclination
42.9995°
Eccentricity
0.0001116
Mean motion
15.27593245 rev/d
Perigee alt
482.2 km
Apogee alt
483.8 km
Semi-major
6,861.1 km
B*
5.0907e-4
RAAN
281.2899°
Arg perigee
287.3909°
Mean anomaly
72.6821°
Rev number
3,053

§ Raw data

STARLINK-355981 66509U 25263AA  26144.79498950  .00013778  00000+0  50907-3 0  99912 66509  42.9995 281.2899 0001116 287.3909  72.6821 15.27593245 30532

JSON: /api/v1/satellites/66509 · /tle

For live sub-satellite position, see the globe view (requires WebGL).

§ Visibility from observer

Set your observer location to see the next 7 days of passes ≥ 10°. The values pass through the URL so the page stays shareable.

No JS? Fill the form by hand. The geolocation button needs JavaScript.